Location: Suzhou
(31.3110°N, 120.6180°E)
Time: 13:55:15
(UTC+08:00)

FO-29 - Pass Details

Date: 23 April 2026
Orbit: 800 x 1320 km, 98.5° (Epoch: 15 May)

Event Time Altitude Azimuth Distance (km) Brightness Sun altitude
Rises 19:25:29 0° 20° (NNE) 4,077 12.8 -11.8°
Reaches altitude 10° 19:28:23 10° 26° (NNE) 3,037 12.1 -12.3°
Maximum altitude 19:34:54 44° 97° (E) 1,403 9.9 -13.6°
Drops below altitude 10° 19:40:38 10° 169° (SSE) 2,680 11.5 -14.7°
Sets 19:43:02 0° 175° (S) 3,554 12.2 -15.2°
